| time (UTC) | temp C | wind direction | speed KPH | gust KPH | rain 1hr cm | rain 24hr cm | rain mn cm | humidity % | barometer mb |
| 20260505040038 | 15 | 198 | 0.0 | 3.2 | 0.03 | 0.10 | 0.10 | 77 | 1016.3 |
| 20260505035523 | 15 | 197 | 0.0 | 1.6 | 0.03 | 0.10 | 0.10 | 75 | 1016.2 |
| 20260505035019 | 15 | 197 | 0.0 | 3.2 | 0.00 | 0.08 | 0.08 | 71 | 1016.2 |
| 20260505034515 | 15 | 197 | 0.0 | 4.8 | 0.00 | 0.08 | 0.08 | 69 | 1016.0 |
| 20260505034030 | 15 | 173 | 1.6 | 11.3 | 0.00 | 0.08 | 0.08 | 68 | 1015.8 |
| 20260505033526 | 15 | 133 | 1.6 | 11.3 | 0.00 | 0.08 | 0.08 | 67 | 1015.5 |
| 20260505033022 | 15 | 123 | 3.2 | 14.5 | 0.00 | 0.08 | 0.08 | 68 | 1015.4 |
| 20260505032518 | 15 | 111 | 6.4 | 14.5 | 0.00 | 0.08 | 0.08 | 67 | 1015.1 |
| 20260505032017 | 15 | 144 | 6.4 | 19.3 | 0.00 | 0.08 | 0.08 | 67 | 1015.2 |
| 20260505031513 | 15 | 123 | 6.4 | 19.3 | 0.00 | 0.08 | 0.08 | 67 | 1015.2 |
| 20260505031029 | 15 | 100 | 11.3 | 19.3 | 0.00 | 0.08 | 0.08 | 66 | 1015.2 |
| 20260505030525 | 16 | 118 | 12.9 | 19.3 | 0.03 | 0.08 | 0.08 | 65 | 1015.1 |
| 20260505030033 | 16 | 116 | 11.3 | 20.9 | 0.03 | 0.08 | 0.08 | 64 | 1015.1 |
| 20260505025515 | 16 | 67 | 12.9 | 20.9 | 0.03 | 0.08 | 0.08 | 61 | 1015.3 |
| 20260505025011 | 16 | 84 | 11.3 | 20.9 | 0.05 | 0.08 | 0.08 | 62 | 1015.3 |
| 20260505024511 | 16 | 113 | 12.9 | 20.9 | 0.05 | 0.08 | 0.08 | 63 | 1015.4 |
| 20260505024026 | 16 | 102 | 4.8 | 16.1 | 0.05 | 0.08 | 0.08 | 62 | 1015.4 |
| 20260505023522 | 16 | 142 | 3.2 | 9.7 | 0.08 | 0.08 | 0.08 | 62 | 1015.5 |
| 20260505023018 | 16 | 93 | 0.0 | 16.1 | 0.08 | 0.08 | 0.08 | 57 | 1015.4 |
| 20260505022514 | 16 | 226 | 1.6 | 25.7 | 0.08 | 0.08 | 0.08 | 54 | 1015.3 |
| 20260505022029 | 17 | 219 | 9.7 | 25.7 | 0.08 | 0.08 | 0.08 | 46 | 1015.3 |
| 20260505021525 | 17 | 184 | 11.3 | 25.7 | 0.08 | 0.08 | 0.08 | 47 | 1015.2 |
| 20260505021025 | 16 | 222 | 6.4 | 20.9 | 0.08 | 0.08 | 0.08 | 54 | 1015.2 |
| 20260505020521 | 16 | 204 | 9.7 | 22.5 | 0.05 | 0.05 | 0.05 | 58 | 1015.2 |
| 20260505020028 | 16 | 248 | 6.4 | 27.4 | 0.05 | 0.05 | 0.05 | 62 | 1015.2 |
| 20260505015529 | 16 | 250 | 11.3 | 27.4 | 0.05 | 0.05 | 0.05 | 64 | 1015.3 |
| 20260505015025 | 16 | 242 | 11.3 | 24.1 | 0.03 | 0.03 | 0.03 | 64 | 1015.4 |
| 20260505014522 | 17 | 249 | 11.3 | 27.4 | 0.03 | 0.03 | 0.03 | 58 | 1015.3 |
| 20260505014018 | 17 | 256 | 9.7 | 27.4 | 0.03 | 0.03 | 0.03 | 53 | 1015.3 |
| 20260505013518 | 17 | 229 | 8.0 | 22.5 | 0.00 | 0.00 | 0.00 | 50 | 1015.4 |
| 20260505013014 | 18 | 243 | 6.4 | 19.3 | 0.00 | 0.00 | 0.00 | 48 | 1015.4 |
| 20260505012529 | 18 | 256 | 6.4 | 16.1 | 0.00 | 0.00 | 0.00 | 51 | 1015.3 |
| 20260505012024 | 18 | 277 | 6.4 | 16.1 | 0.00 | 0.00 | 0.00 | 45 | 1015.2 |
| 20260505011520 | 18 | 309 | 1.6 | 4.8 | 0.00 | 0.00 | 0.00 | 45 | 1015.0 |
| 20260505011016 | 18 | 322 | 0.0 | 4.8 | 0.00 | 0.00 | 0.00 | 47 | 1015.0 |
| 20260505010532 | 19 | 280 | 0.0 | 11.3 | 0.00 | 0.00 | 0.00 | 47 | 1014.7 |
| 20260505010039 | 19 | 280 | 3.2 | 11.3 | 0.00 | 0.00 | 0.00 | 43 | 1014.4 |
| 20260505005524 | 19 | 280 | 3.2 | 12.9 | 0.00 | 0.00 | 0.00 | 39 | 1014.4 |
| 20260505005020 | 19 | 200 | 4.8 | 16.1 | 0.00 | 0.00 | 0.00 | 41 | 1014.5 |
| 20260505004516 | 19 | 232 | 6.4 | 24.1 | 0.00 | 0.00 | 0.00 | 42 | 1014.7 |
| 20260505004032 | 18 | 243 | 11.3 | 24.1 | 0.00 | 0.00 | 0.00 | 45 | 1014.8 |
| 20260505003527 | 18 | 243 | 6.4 | 17.7 | 0.00 | 0.00 | 0.00 | 51 | 1015.0 |
| 20260505003024 | 19 | 238 | 3.2 | 17.7 | 0.00 | 0.00 | 0.00 | 49 | 1014.8 |
| 20260505002520 | 18 | 240 | 4.8 | 22.5 | 0.00 | 0.00 | 0.00 | 49 | 1014.9 |
| 20260505002019 | 19 | 252 | 8.0 | 22.5 | 0.00 | 0.00 | 0.00 | 45 | 1014.8 |
| 20260505001515 | 20 | 237 | 8.0 | 22.5 | 0.00 | 0.00 | 0.00 | 45 | 1014.9 |
| 20260505001031 | 20 | 266 | 3.2 | 12.9 | 0.00 | 0.00 | 0.00 | 46 | 1014.7 |
| 20260505000527 | 21 | 267 | 3.2 | 9.7 | 0.00 | 0.00 | 0.00 | 46 | 1014.6 |
| 20260505000035 | 21 | 266 | 3.2 | 12.9 | 0.00 | 0.00 | 0.00 | 41 | 1014.7 |
| 20260504235516 | 22 | 290 | 6.4 | 16.1 | 0.00 | 0.00 | 0.00 | 37 | 1014.6 |
| 20260504235032 | 22 | 282 | 1.6 | 16.1 | 0.00 | 0.00 | 0.00 | 34 | 1014.4 |
| 20260504234532 | 22 | 267 | 1.6 | 9.7 | 0.00 | 0.00 | 0.00 | 35 | 1014.4 |
| 20260504234028 | 22 | 254 | 3.2 | 11.3 | 0.00 | 0.00 | 0.00 | 33 | 1014.4 |
| 20260504233523 | 22 | 265 | 3.2 | 11.3 | 0.00 | 0.00 | 0.00 | 37 | 1014.3 |
| 20260504233019 | 22 | 278 | 1.6 | 14.5 | 0.00 | 0.00 | 0.00 | 35 | 1014.4 |
| 20260504232514 | 22 | 239 | 3.2 | 14.5 | 0.00 | 0.00 | 0.00 | 37 | 1014.7 |
| 20260504232030 | 22 | 309 | 0.0 | 16.1 | 0.00 | 0.00 | 0.00 | 39 | 1014.8 |
| 20260504231526 | 22 | 296 | 4.8 | 17.7 | 0.00 | 0.00 | 0.00 | 36 | 1015.1 |
| 20260504231025 | 23 | 247 | 1.6 | 19.3 | 0.00 | 0.00 | 0.00 | 31 | 1015.0 |
| 20260504230521 | 23 | 282 | 6.4 | 17.7 | 0.00 | 0.00 | 0.00 | 29 | 1015.3 |
| 20260504230029 | 23 | 275 | 8.0 | 27.4 | 0.00 | 0.00 | 0.00 | 30 | 1015.0 |
| 20260504225530 | 24 | 250 | 12.9 | 37.0 | 0.00 | 0.00 | 0.00 | 27 | 1015.0 |
| 20260504225027 | 23 | 242 | 12.9 | 37.0 | 0.00 | 0.00 | 0.00 | 26 | 1014.6 |
| 20260504224523 | 25 | 253 | 17.7 | 29.0 | 0.00 | 0.00 | 0.00 | 25 | 1014.4 |
| 20260504224019 | 25 | 251 | 12.9 | 25.7 | 0.00 | 0.00 | 0.00 | 22 | 1014.3 |
| 20260504223519 | 26 | 206 | 8.0 | 19.3 | 0.00 | 0.00 | 0.00 | 21 | 1014.2 |
| 20260504223015 | 26 | 259 | 11.3 | 22.5 | 0.00 | 0.00 | 0.00 | 20 | 1014.2 |
| 20260504222531 | 26 | 287 | 8.0 | 20.9 | 0.00 | 0.00 | 0.00 | 20 | 1014.4 |
| 20260504222026 | 26 | 295 | 12.9 | 25.7 | 0.00 | 0.00 | 0.00 | 20 | 1014.4 |
| 20260504221521 | 26 | 266 | 14.5 | 24.1 | 0.00 | 0.00 | 0.00 | 18 | 1014.3 |
| 20260504221016 | 27 | 225 | 8.0 | 17.7 | 0.00 | 0.00 | 0.00 | 18 | 1014.1 |
| 20260504220531 | 27 | 260 | 8.0 | 22.5 | 0.00 | 0.00 | 0.00 | 19 | 1014.1 |
| 20260504220038 | 26 | 271 | 11.3 | 25.7 | 0.00 | 0.00 | 0.00 | 19 | 1014.0 |
| 20260504215522 | 27 | 276 | 6.4 | 24.1 | 0.00 | 0.00 | 0.00 | 19 | 1014.1 |
| 20260504215019 | 27 | 270 | 12.9 | 24.1 | 0.00 | 0.00 | 0.00 | 19 | 1014.1 |
| 20260504214514 | 27 | 285 | 8.0 | 19.3 | 0.00 | 0.00 | 0.00 | 18 | 1014.1 |
| 20260504214029 | 28 | 283 | 8.0 | 19.3 | 0.00 | 0.00 | 0.00 | 17 | 1014.1 |
| 20260504213524 | 28 | 285 | 8.0 | 19.3 | 0.00 | 0.00 | 0.00 | 16 | 1014.0 |
| 20260504213019 | 28 | 262 | 11.3 | 19.3 | 0.00 | 0.00 | 0.00 | 16 | 1013.9 |
| 20260504212514 | 28 | 6 | 3.2 | 19.3 | 0.00 | 0.00 | 0.00 | 16 | 1013.9 |
| 20260504212033 | 28 | 344 | 4.8 | 19.3 | 0.00 | 0.00 | 0.00 | 16 | 1013.7 |
| 20260504211529 | 29 | 282 | 4.8 | 16.1 | 0.00 | 0.00 | 0.00 | 16 | 1013.8 |
| 20260504211024 | 28 | 304 | 3.2 | 16.1 | 0.00 | 0.00 | 0.00 | 16 | 1013.7 |
| 20260504210520 | 28 | 283 | 1.6 | 20.9 | 0.00 | 0.00 | 0.00 | 16 | 1013.8 |
| 20260504210028 | 28 | 287 | 8.0 | 20.9 | 0.00 | 0.00 | 0.00 | 16 | 1014.0 |
| 20260504205529 | 28 | 257 | 9.7 | 20.9 | 0.00 | 0.00 | 0.00 | 15 | 1014.1 |
| 20260504205025 | 28 | 245 | 9.7 | 22.5 | 0.00 | 0.00 | 0.00 | 15 | 1014.1 |
| 20260504204525 | 28 | 214 | 8.0 | 22.5 | 0.00 | 0.00 | 0.00 | 16 | 1013.9 |
| 20260504204022 | 28 | 226 | 11.3 | 22.5 | 0.00 | 0.00 | 0.00 | 16 | 1014.0 |
| 20260504203518 | 28 | 257 | 8.0 | 22.5 | 0.00 | 0.00 | 0.00 | 15 | 1013.9 |
| 20260504203013 | 28 | 260 | 9.7 | 22.5 | 0.00 | 0.00 | 0.00 | 16 | 1014.0 |
| 20260504202530 | 28 | 256 | 8.0 | 20.9 | 0.00 | 0.00 | 0.00 | 15 | 1014.0 |
| 20260504202025 | 28 | 275 | 8.0 | 22.5 | 0.00 | 0.00 | 0.00 | 16 | 1013.9 |
| 20260504201520 | 28 | 244 | 12.9 | 22.5 | 0.00 | 0.00 | 0.00 | 15 | 1014.0 |
| 20260504201020 | 28 | 241 | 6.4 | 20.9 | 0.00 | 0.00 | 0.00 | 16 | 1014.0 |
| 20260504200516 | 28 | 239 | 8.0 | 20.9 | 0.00 | 0.00 | 0.00 | 16 | 1014.0 |
| 20260504200042 | 28 | 254 | 3.2 | 27.4 | 0.00 | 0.00 | 0.00 | 17 | 1014.3 |
| 20260504195522 | 28 | 286 | 8.0 | 27.4 | 0.00 | 0.00 | 0.00 | 17 | 1014.1 |
| 20260504195017 | 28 | 221 | 4.8 | 12.9 | 0.00 | 0.00 | 0.00 | 16 | 1014.1 |
| 20260504194533 | 28 | 228 | 6.4 | 19.3 | 0.00 | 0.00 | 0.00 | 16 | 1014.1 |
| 20260504194028 | 28 | 267 | 6.4 | 20.9 | 0.00 | 0.00 | 0.00 | 16 | 1014.2 |
| 20260504193523 | 27 | 214 | 4.8 | 20.9 | 0.00 | 0.00 | 0.00 | 16 | 1014.1 |
| 20260504193023 | 27 | 159 | 4.8 | 22.5 | 0.00 | 0.00 | 0.00 | 17 | 1014.0 |
| 20260504192519 | 27 | 196 | 8.0 | 22.5 | 0.00 | 0.00 | 0.00 | 18 | 1014.1 |
| 20260504192014 | 28 | 215 | 8.0 | 19.3 | 0.00 | 0.00 | 0.00 | 17 | 1014.3 |
| 20260504191529 | 27 | 214 | 9.7 | 16.1 | 0.00 | 0.00 | 0.00 | 18 | 1014.1 |
| 20260504191024 | 27 | 234 | 3.2 | 24.1 | 0.00 | 0.00 | 0.00 | 19 | 1014.3 |
| 20260504190520 | 27 | 135 | 6.4 | 24.1 | 0.00 | 0.00 | 0.00 | 19 | 1014.3 |
| 20260504190027 | 27 | 105 | 4.8 | 11.3 | 0.00 | 0.00 | 0.00 | 19 | 1014.2 |
| 20260504185532 | 27 | 244 | 3.2 | 17.7 | 0.00 | 0.00 | 0.00 | 19 | 1014.1 |
| 20260504185028 | 27 | 200 | 9.7 | 17.7 | 0.00 | 0.00 | 0.00 | 19 | 1014.6 |
| 20260504184524 | 26 | 212 | 6.4 | 19.3 | 0.00 | 0.00 | 0.00 | 19 | 1014.6 |
| 20260504184019 | 27 | 214 | 3.2 | 17.7 | 0.00 | 0.00 | 0.00 | 19 | 1014.6 |
| 20260504183516 | 26 | 209 | 8.0 | 20.9 | 0.00 | 0.00 | 0.00 | 19 | 1014.8 |
| 20260504182515 | 27 | 298 | 6.4 | 17.7 | 0.00 | 0.00 | 0.00 | 18 | 1014.8 |
| 20260504182015 | 27 | 250 | 8.0 | 17.7 | 0.00 | 0.00 | 0.00 | 18 | 1015.0 |
| 20260504181531 | 27 | 269 | 3.2 | 25.7 | 0.00 | 0.00 | 0.00 | 19 | 1014.9 |
| 20260504181026 | 26 | 239 | 11.3 | 25.7 | 0.00 | 0.00 | 0.00 | 19 | 1014.9 |
| 20260504180522 | 27 | 318 | 9.7 | 22.5 | 0.00 | 0.00 | 0.00 | 20 | 1015.0 |
| 20260504180030 | 26 | 277 | 8.0 | 19.3 | 0.00 | 0.00 | 0.00 | 21 | 1015.0 |
| 20260504175513 | 26 | 280 | 6.4 | 19.3 | 0.00 | 0.00 | 0.00 | 22 | 1014.9 |
| 20260504175028 | 26 | 231 | 9.7 | 17.7 | 0.00 | 0.00 | 0.00 | 21 | 1015.0 |
| 20260504174528 | 26 | 159 | 3.2 | 9.7 | 0.00 | 0.00 | 0.00 | 24 | 1015.0 |
| 20260504174024 | 26 | 187 | 4.8 | 9.7 | 0.00 | 0.00 | 0.00 | 23 | 1015.0 |
| 20260504173520 | 25 | 104 | 4.8 | 9.7 | 0.00 | 0.00 | 0.00 | 24 | 1015.0 |
| 20260504173016 | 26 | 148 | 1.6 | 12.9 | 0.00 | 0.00 | 0.00 | 24 | 1015.0 |
| 20260504172532 | 25 | 140 | 1.6 | 14.5 | 0.00 | 0.00 | 0.00 | 24 | 1015.0 |
| 20260504172027 | 25 | 98 | 6.4 | 17.7 | 0.00 | 0.00 | 0.00 | 25 | 1014.9 |
| 20260504171523 | 25 | 155 | 8.0 | 22.5 | 0.00 | 0.00 | 0.00 | 25 | 1015.0 |
| 20260504171023 | 25 | 105 | 11.3 | 22.5 | 0.00 | 0.00 | 0.00 | 25 | 1015.0 |
| 20260504170519 | 25 | 123 | 6.4 | 17.7 | 0.00 | 0.00 | 0.00 | 26 | 1015.0 |
| 20260504151012 | 23 | 141 | 4.8 | 14.5 | 0.00 | 0.00 | 0.00 | 32 | 1014.8 |
| 20260504150528 | 23 | 176 | 4.8 | 16.1 | 0.00 | 0.00 | 0.00 | 33 | 1015.0 |
| 20260504141026 | 22 | 102 | 3.2 | 8.0 | 0.00 | 0.00 | 0.00 | 33 | 1015.0 |
| 20260504140522 | 22 | 113 | 1.6 | 4.8 | 0.00 | 0.00 | 0.00 | 34 | 1014.8 |
| 20260504130513 | 21 | 140 | 3.2 | 14.5 | 0.00 | 0.00 | 0.00 | 34 | 1014.1 |
| 20260504110525 | 22 | 206 | 3.2 | 9.7 | 0.00 | 0.00 | 0.00 | 32 | 1013.5 |
| 20260504100528 | 22 | 206 | 4.8 | 20.9 | 0.00 | 0.00 | 0.00 | 32 | 1013.5 |
| 20260504081522 | 22 | 159 | 0.0 | 4.8 | 0.00 | 0.00 | 0.00 | 33 | 1013.2 |
| 20260504081022 | 22 | 159 | 1.6 | 4.8 | 0.00 | 0.00 | 0.00 | 33 | 1013.1 |
| 20260504080518 | 22 | 149 | 0.0 | 4.8 | 0.00 | 0.00 | 0.00 | 33 | 1013.1 |
| 20260504050521 | 24 | 238 | 6.4 | 19.3 | 0.00 | 0.00 | 0.00 | 27 | 1014.0 |
| 20260504045530 | 24 | 227 | 4.8 | 17.7 | 0.00 | 0.00 | 0.00 | 27 | 1014.0 |
| 20260504045026 | 24 | 235 | 4.8 | 17.7 | 0.00 | 0.00 | 0.00 | 26 | 1013.8 |
| 20260504044521 | 24 | 215 | 9.7 | 17.7 | 0.00 | 0.00 | 0.00 | 27 | 1013.9 |
| 20260504044017 | 24 | 213 | 3.2 | 9.7 | 0.00 | 0.00 | 0.00 | 27 | 1014.0 |
| 20260504043517 | 24 | 239 | 1.6 | 9.7 | 0.00 | 0.00 | 0.00 | 26 | 1014.0 |
| 20260504043013 | 24 | 230 | 0.0 | 4.8 | 0.00 | 0.00 | 0.00 | 26 | 1014.0 |
| 20260504042528 | 24 | 229 | 1.6 | 8.0 | 0.00 | 0.00 | 0.00 | 26 | 1013.9 |
| 20260504042024 | 24 | 131 | 3.2 | 11.3 | 0.00 | 0.00 | 0.00 | 26 | 1013.8 |
| 20260504041520 | 25 | 229 | 1.6 | 17.7 | 0.00 | 0.00 | 0.00 | 25 | 1013.9 |
| 20260504041016 | 25 | 221 | 1.6 | 17.7 | 0.00 | 0.00 | 0.00 | 25 | 1013.9 |
| 20260504040512 | 25 | 221 | 6.4 | 14.5 | 0.00 | 0.00 | 0.00 | 25 | 1014.0 |